This is the latest recevied weather packets stored in our database for station/object N4BBA. If no packets are shown the sender has not sent any weather packets the latest 10 day(s).
| Time | Temp. | Humidity | Pressure | Rain* | Wind** | Luminosity | Snow |
|---|---|---|---|---|---|---|---|
| 1777681951 | 11.67° C | 88% | 1011.9 hPa | 0 mm | - | 0 W/m² | - |
| 1777681646 | 11.67° C | 88% | 1012 hPa | 0 mm | - | 0 W/m² | - |
| 1777681344 | 11.67° C | 87% | 1011.9 hPa | 0 mm | - | 0 W/m² | - |
| 1777681041 | 11.67° C | 87% | 1012 hPa | 0 mm | - | 0 W/m² | - |
| 1777680739 | 11.67° C | 87% | 1011.9 hPa | 0 mm | - | 0 W/m² | - |
| 1777680436 | 12.22° C | 86% | 1012 hPa | 0 mm | - | 1 W/m² | - |
| 1777680134 | 12.22° C | 86% | 1012.1 hPa | 0 mm | - | 1 W/m² | - |
| 1777679830 | 12.22° C | 86% | 1012.2 hPa | 0 mm | - | 2 W/m² | - |
| 1777679526 | 12.78° C | 85% | 1012.3 hPa | 0 mm | - | 3 W/m² | - |
| 1777679222 | 12.78° C | 85% | 1012.3 hPa | 0 mm | - | 6 W/m² | - |
| 1777678919 | 12.78° C | 85% | 1012.2 hPa | 0 mm | - | 7 W/m² | - |
| 1777678617 | 12.22° C | 85% | 1012.2 hPa | 0 mm | - | 13 W/m² | - |
| 1777678314 | 12.22° C | 85% | 1012.1 hPa | 0 mm | - | 16 W/m² | - |
| 1777678010 | 12.78° C | 84% | 1012.5 hPa | 0 mm | - | 11 W/m² | - |
| 1777677708 | 12.78° C | 84% | 1012.5 hPa | 0 mm | - | 19 W/m² | - |
| 1777677405 | 12.78° C | 84% | 1012.5 hPa | 0 mm | - | 11 W/m² | - |
| 1777677103 | 12.78° C | 84% | 1012.4 hPa | 0 mm | - | 25 W/m² | - |
| 1777676801 | 12.78° C | 83% | 1012.4 hPa | 0 mm | - | 22 W/m² | - |
| 1777676499 | 12.78° C | 83% | 1012.3 hPa | 0 mm | - | 51 W/m² | - |
| 1777676197 | 12.78° C | 83% | 1012.1 hPa | 0 mm | - | 67 W/m² | - |
| 1777675893 | 12.78° C | 83% | 1012.2 hPa | 0 mm | - | 62 W/m² | - |
| 1777675590 | 12.78° C | 83% | 1012.2 hPa | 0 mm | - | 51 W/m² | - |
| 1777675287 | 12.78° C | 83% | 1012.5 hPa | 0 mm | - | 58 W/m² | - |
| 1777674983 | 12.78° C | 83% | 1012.6 hPa | 0 mm | - | 76 W/m² | - |
| 1777674680 | 12.78° C | 83% | 1012.7 hPa | 0 mm | - | 68 W/m² | - |
* Rain latest hour (hover to see other rain measurements)
** Current wind speed in m/s (hover to see current wind gust speed)